View from above orbital plane
|
View from above satellite
|
Ground track
|
The orbit data is extracted from the following two-line orbital elements,
1 37391U 11014B 21106.86742161 0.00000000 00000-0 00000-0 0 08
2 37391 63.4420 53.4962 0194988 358.1212 1.8788 13.40819620 00
Epoch (UTC): | 16 April 2021 20:49:05 |
Eccentricity: | 0.0194988 |
inclination: | 63.4420° |
perigee height: | 960 km |
apogee height: | 1252 km |
right ascension of ascending node: | 53.4962° |
argument of perigee: | 358.1212° |
revolutions per day: | 13.40819620 |
mean anomaly at epoch: | 1.8788° |
orbit number at epoch: | 0 |
The dashed part of the orbit path shows where the satellite is in the earth's shadow,
|
|